Regional Weather Roundup
Issued by NWS

Home | Current Version | Previous Version | Text Only | Print | Product List | Glossary Off
Versions: 1 2 3 4 5 6 7 8 9 10 11 12 13 14 15 16 17 18 19 20 21 22 23 24 25 26 27 28 29 30 31 32 33 34 35 36 37 38 39 40 41 42 43 44 45 46 47 48 49 50

000
ASUS43 KIND 050459
RWRIN

WEATHER ROUNDUP FOR INDIANA
NATIONAL WEATHER SERVICE INDIANAPOLIS IN
1200 AM EST THU MAR 05 2015

NOTE: "FAIR" INDICATES FEW OR NO CLOUDS BELOW 12,000 FEET WITH NO
SIGNIFICANT WEATHER AND/OR OBSTRUCTIONS TO VISIBILITY.

* - STATION DOES NOT REPORT WEATHER SUCH AS PRECIPITATION OR FOG.

+ - STATION NOT QUALITY CONTROLLED BY THE NATIONAL WEATHER SERVICE.
    USE DATA WITH CAUTION...ESPECIALLY DEWPOINT AND RELATIVE
    HUMIDITY OBSERVATIONS.

INZ001>003-010>013-019-020-050600-
NORTHWEST INDIANA

CITY           SKY/WX    TMP DP  RH WIND       PRES   REMARKS
GARY /AIRPORT/ PTCLDY    17  -1  46 W9        30.36R WCI   5
MONTICELLO +   CLOUDY    16   8  71 NW12      30.31R WCI   3
VALPARAISO     NOT AVBL

$$

LMZ046-743>745-050600-
SOUTHERN LAKE MICHIGAN

STATION/POSITION TIME  TEMP WIND        PRES
                       AIR  DIR/SP/G
                 (UTC) (F)  (DEG/KT/KT) (MB)
MICHIGAN CITY    0400   18  270/ 11/ 13   N/A

$$

INZ004-005-014>016-021>024-050600-
NORTH CENTRAL INDIANA

CITY           SKY/WX    TMP DP  RH WIND       PRES   REMARKS
GOSHEN         CLOUDY    18   5  57 NW9       30.26S WCI   7
SOUTH BEND     MOCLDY    18   5  57 NW9       30.29R WCI   7

$$

INZ006>009-017-018-025>027-050600-
NORTHEAST INDIANA

CITY           SKY/WX    TMP DP  RH WIND       PRES   REMARKS
ANGOLA *+      CLEAR     16   3  57 N7        30.22S WCI   6
FORT WAYNE     CLOUDY    18   7  62 NW9       30.27S WCI   7

$$

INZ028-029-035-036-043>045-051>053-050600-
WEST CENTRAL INDIANA

CITY           SKY/WX    TMP DP  RH WIND       PRES   REMARKS
CRAWFORDSVL +  CLOUDY    15   2  57 NW9       30.30S WCI   3
GREENCASTLE +  CLOUDY    18   5  57 NW10      30.30R WCI   6
LAFAYETTE      CLOUDY    16   6  65 NW10G20   30.33R WCI   4
TERRE HAUTE    CLOUDY    18   7  62 N9        30.33R WCI   7

$$

INZ030>032-037>040-046>048-054>057-064-065-050600-
CENTRAL INDIANA

CITY           SKY/WX    TMP DP  RH WIND       PRES   REMARKS
FRANKFORT +    CLOUDY    17   9  70 W12       30.33R WCI   5
GREENWOOD *+   CLOUDY    19   9  63 N10G16    30.28R WCI   8
INDIANAPOLIS   CLOUDY    19   9  65 N13       30.28R WCI   6
-EAGLE CREEK   CLOUDY    18  10  71 NW12      30.28S WCI   5
KOKOMO *+        N/A    N/A N/A N/A MISG        N/A
MT COMFORT *+  CLOUDY    19   1  45 N13       30.27R WCI   7
SHELBYVILLE    CLOUDY    22   8  55 N15       30.27R WCI   9

$$

INZ033-034-041-042-049-050-058-059-050600-
EAST CENTRAL INDIANA

CITY           SKY/WX    TMP DP  RH WIND       PRES   REMARKS
MUNCIE         CLOUDY    19  10  68 N10       30.27R WCI   7

$$

INZ060-061-067>069-081>083-085>088-050600-
SOUTHWEST INDIANA

CITY           SKY/WX    TMP DP  RH WIND       PRES   REMARKS
EVANSVILLE     CLOUDY    21   8  57 N12       30.31S WCI   9
HUNTINGBURG *+ CLOUDY    19  10  68 N12       30.27F WCI   7

$$

INZ062-063-066-070>080-084-089>092-050600-
SOUTH CENTRAL AND SOUTHEAST INDIANA

CITY           SKY/WX    TMP DP  RH WIND       PRES   REMARKS
BLOOMINGTON    CLOUDY    19  10  68 N12       30.27S WCI   7
SEYMOUR +      CLOUDY    23  14  68 N12       30.27R WCI  12

$$




USA.gov is the U.S. government's official web portal to all federal, state and local government web resources and services.